Lid_Strength_Index
2 5 5 7 13 15 17 14 11 11 11 9 6 6 7 6 8 11 2 1 1 1 -0 -0 -0 -1 -1 -1 -1 -1 -1 -1 -1 -1 -1 -1 -1 -1 -1 -1 -1 -1 -1 -1 -1 -1 -1 -1 -1
5 5 7 10 16 19 17 12 12 11 9 8 7 6 7 8 4 4 3 1 0 0 -0 -0 -0 -1 -1 -1 -1 -1 -1 -1 -1 -1 -1 -1 -1 -1 -1 -1 -1 -1 -1 -1 -1 -1 -1 -1 -1
4 5 8 13 18 18 16 13 11 11 9 10 10 5 6 7 4 4 2 1 0 0 -0 -0 -0 -0 -1 -1 -1 -1 -1 -1 -1 -1 -1 -1 -1 -1 -1 -1 -1 -1 -1 -1 -1 -1 -1 -1 -1
6 8 9 16 17 15 13 11 11 12 10 9 8 7 5 3 3 2 1 1 1 1 -0 -0 -0 -1 -1 -1 -1 -1 -1 -1 -1 -1 -1 -1 -1 -1 -1 -1 -1 -1 -1 -1 -1 -1 -1 -1 -1
7 11 15 17 16 14 12 11 11 12 11 9 9 10 6 3 2 1 1 1 1 1 -0 -0 -0 -1 -1 -1 -1 -1 -1 -1 -1 -1 -1 -1 -1 -1 -1 -1 -1 -1 -1 -1 -1 -1 -1 -1 -1
10 12 16 16 14 13 12 11 11 12 11 9 10 7 6 3 3 2 1 1 1 1 0 -0 -0 -0 -1 -1 -1 -1 -1 -1 -1 -1 -1 -1 -1 -1 -1 -1 -1 -1 -1 -1 -1 -1 -1 -1 -1
11 13 16 16 14 13 11 11 12 11 12 10 9 9 6 4 2 2 1 1 1 0 0 0 -0 -0 -1 -1 -1 -1 -1 -1 -1 -1 -1 -1 -1 -1 -1 -1 -1 -1 -1 -1 -1 -1 -1 -1 -1
9 12 14 13 12 13 9 11 12 11 10 8 7 9 8 4 2 1 1 1 1 1 1 0 0 0 -0 -0 -1 -1 -1 -1 -1 -1 -1 -1 -1 -1 -1 -1 -1 -1 -1 -1 -1 -1 -1 -1 -1
9 13 15 14 12 11 8 9 7 8 9 8 8 8 4 2 2 2 3 2 2 1 1 0 0 0 -0 -0 -0 -1 -1 -1 -1 -1 -1 -0 -0 -0 -0 -1 -1 -1 -1 -1 -1 -1 -1 -1 -2
12 15 13 10 9 9 8 8 7 8 8 9 8 8 3 3 3 4 4 4 3 3 2 1 0 1 1 -0 -0 -0 -0 -0 -0 -0 -0 -0 -0 -0 -0 -1 -1 -1 -1 -1 -1 -1 -1 -1 -0
12 14 11 10 9 8 8 8 6 8 9 9 10 8 8 4 4 4 4 3 3 2 2 1 1 0 0 0 0 -0 -0 -0 -0 -0 -0 0 -0 -0 0 0 -0 0 -1 -0 -0 -0 0 0 0
12 10 10 9 9 10 10 8 8 7 8 6 8 8 8 9 4 4 4 3 3 3 2 1 1 1 0 0 1 0 0 -0 -0 -0 0 0 0 1 1 0 0 0 0 0 0 0 0 0 0
11 10 8 8 9 10 9 10 9 8 7 6 6 7 8 8 9 6 3 3 3 3 2 1 1 1 1 1 1 1 0 0 -0 -0 -0 0 0 0 0 0 0 0 0 0 0 0 0 0 0
10 9 9 9 9 9 9 9 9 8 6 6 6 7 7 8 9 11 7 3 3 2 2 1 1 1 0 1 0 1 0 0 0 -0 -0 -0 0 0 1 0 0 1 0 0 0 0 0 0 1
9 11 9 9 10 9 8 10 10 8 7 7 7 7 7 7 9 10 8 3 3 2 2 2 1 1 1 1 0 0 0 0 0 0 0 0 0 1 1 1 1 1 0 0 0 1 1 2 2
10 11 15 11 9 9 9 14 9 8 8 8 7 7 7 6 7 7 8 6 2 3 3 2 2 2 1 1 1 1 0 0 1 1 1 0 -0 1 1 1 1 1 1 1 2 2 2 2 2
11 15 13 12 8 8 9 12 9 7 8 8 8 8 7 7 6 5 6 5 2 3 3 3 3 3 2 2 1 1 1 1 1 1 1 0 -0 0 1 1 1 2 1 1 2 3 3 3 3
14 13 12 11 9 9 10 11 10 9 8 9 8 8 7 8 7 6 5 6 2 2 3 3 3 2 3 3 3 2 2 1 2 1 0 0 0 0 1 1 1 2 1 2 2 3 3 3 2
10 12 12 11 8 9 10 10 10 9 8 9 8 8 7 7 6 6 5 6 3 2 2 3 3 2 2 3 3 3 3 2 2 1 0 0 0 0 1 1 0 2 1 3 2 2 3 2 2
10 12 12 10 8 10 12 12 10 9 9 8 8 8 8 7 7 6 6 5 4 3 2 2 3 2 2 3 3 2 3 3 3 1 0 0 0 0 1 1 1 1 2 2 2 3 3 3 2
11 12 12 12 10 10 11 13 12 9 8 8 7 8 7 7 7 7 6 5 5 3 3 2 2 3 1 1 2 1 1 3 4 2 1 1 0 0 1 1 1 2 3 3 2 3 2 3 4
13 9 9 10 12 15 11 16 13 12 10 9 8 9 8 8 7 7 6 6 5 5 2 2 2 3 2 1 2 2 3 4 3 2 1 1 1 0 1 1 2 2 3 3 2 2 1 2 3
11 8 10 10 12 14 12 16 14 10 11 11 9 9 8 8 8 7 7 6 6 3 3 2 2 2 3 2 1 2 2 2 2 3 2 1 1 0 1 1 1 2 2 2 2 1 1 2 3
8 10 11 12 14 19 13 16 15 12 11 10 9 7 6 7 7 7 7 7 7 5 4 2 2 2 2 2 2 2 2 2 2 3 2 2 1 1 1 1 0 1 2 1 2 1 1 2 4
10 14 20 21 20 19 12 15 14 11 8 9 9 8 6 5 6 5 5 7 7 7 4 3 3 3 2 2 2 2 2 2 2 2 2 2 2 2 1 1 1 1 1 1 1 1 1 3 4
12 13 18 23 22 19 13 18 14 9 8 7 7 7 6 6 5 5 5 6 7 7 7 5 3 3 2 2 2 2 2 2 2 2 2 2 2 1 1 1 1 1 0 1 1 1 1 3 4
12 16 12 17 16 19 16 13 10 9 9 8 8 7 7 6 5 5 5 5 6 6 7 5 4 3 2 2 2 2 2 2 2 2 1 2 1 1 1 1 1 1 1 1 1 1 2 3 4
11 10 16 16 21 22 17 16 17 13 12 9 9 8 7 6 6 5 5 5 5 5 5 6 5 3 2 2 2 2 2 2 1 2 2 2 1 1 1 1 1 1 1 1 1 3 3 4 5
13 14 14 14 16 20 21 18 11 12 10 10 9 8 8 8 6 5 4 5 5 4 4 4 3 4 3 2 2 2 2 2 1 2 2 2 1 1 1 1 1 1 1 2 2 3 3 4 4
10 13 13 18 19 16 18 18 9 9 9 10 9 9 8 7 7 6 5 5 4 4 4 4 4 3 3 2 2 2 2 2 2 2 2 2 1 1 1 1 1 1 1 2 3 3 3 3 4